Regional Weather Roundup
Issued by NWS

Home | Current Version | Previous Version | Graphics & Text | Print | Product List | Glossary On
Versions: 1 2 3 4 5 6 7 8 9 10 11 12 13 14 15 16 17 18 19 20 21 22 23 24 25 26 27 28 29 30 31 32 33 34 35 36 37 38 39 40 41 42 43 44 45 46 47 48 49 50
000
ASUS44 KMEG 050910
RWRTN
TENNESSEE HOURLY STATE WEATHER ROUNDUP
NATIONAL WEATHER SERVICE MEMPHIS TN
300 AM CST MON DEC 05 2016

TNZ002-004-019-021-049-052-054-088>092-051000-
WEST TENNESSEE

CITY           SKY/WX    TMP DP  RH WIND       PRES   REMARKS
MEMPHIS INTL   CLOUDY    44  40  85 NE9       30.04F
NWS MEMPHIS      N/A     42 N/A N/A MISG        N/A
JACKSON        CLOUDY    43  40  89 NE9       30.05F
DYERSBURG      CLOUDY   N/A N/A N/A NE7       30.07R
UNION CITY     CLOUDY    39  37  93 CALM      30.07R
PARIS          CLOUDY    37  36  93 N6        30.06F WCI  33
HUNTINGDON     CLOUDY    43  37  81 NE6       30.05S
LEXINGTON      CLOUDY    41  39  93 N8        30.04S
$$

TNZ008-025-027-028-033-062-065-066-051000-
NORTH MIDDLE TENNESSEE

CITY           SKY/WX    TMP DP  RH WIND       PRES   REMARKS
NASHVILLE      CLOUDY    45  42  89 N7        30.05F
PORTLAND       CLOUDY    41  39  93 N6        30.06S
CLARKSVILLE    CLOUDY    41  36  82 N6        30.07S
SMYRNA         CLOUDY    45  43  93 N8        30.06S
CROSSVILLE     CLOUDY    44  43  96 NW5       30.02R FOG
$$

TNZ061-075-076-078-094-096-097-051000-
SOUTH MIDDLE TENNESSEE

CITY           SKY/WX    TMP DP  RH WIND       PRES   REMARKS
FAYETTEVILLE   CLOUDY    46  46 100 N7        30.00F FOG
TULLAHOMA      CLOUDY    45  45 100 N3        30.02F
WINCHESTER     CLOUDY    46  46 100 CALM      30.01F
MCMINNVILLE    CLOUDY    46  46 100 CALM      30.03S
COLUMBIA       CLOUDY   N/A N/A N/A N3        30.02S
SHELBYVILLE    CLOUDY    46  46 100 N5        30.04F
$$

TNZ017-018-042-046-047-051000-
NORTHEAST TENNESSEE

CITY           SKY/WX    TMP DP  RH WIND       PRES   REMARKS
TRI CITIES     LGT RAIN  45  45 100 CALM      30.02S FOG
ELIZABETHTON     N/A     46  45  93 CALM      30.02S FOG
$$

TNZ012-013-036-069-073-074-051000-
CENTRAL EAST TENNESSEE

CITY           SKY/WX    TMP DP  RH WIND       PRES   REMARKS
KNOXVILLE      DRIZZLE   46  45  96 SE3       30.01F FOG
OAK RIDGE      CLOUDY    48  45  89 SW3       30.04S
DOWNTOWN KNOXV CLOUDY    46  46 100 S5        30.03S FOG
GATLINBURG     CLOUDY    45  43  93 CALM      30.03S
MORRISTOWN     CLOUDY    45  45 100 S3        30.01F FOG
JACKSBORO      CLOUDY    46  46 100 CALM      30.05R FOG
$$

TNZ083-085-099-051000-
SOUTHEAST TENNESSEE

CITY           SKY/WX    TMP DP  RH WIND       PRES   REMARKS
CHATTANOOGA    CLOUDY    47  45  93 CALM      30.03S
$$

SKY/WX REPORTED AS FAIR MEANS FEW OR NO CLOUDS BELOW
12 THOUSAND FEET.




USA.gov is the U.S. government's official web portal to all federal, state and local government web resources and services.